User: anonymous
Location: Nebula Knoll Observatory
(43.6666°N, 71.0000°W)
Time: 18:01:41
(UTC-04:00)
Language:

SeaSat 1 - Orbit

View from above orbital plane
View from above orbital plane
View from above satellite
View from above satellite

Ground track
Ground track

The orbit data is extracted from the following two-line orbital elements,

1 10967U 78064A   14203.81513744 -.00000013  00000-0  36972-4 0  3384
2 10967 107.9919 245.4825 0002768 281.4175 172.7176 14.43046309893614
Epoch (UTC): 22 July 2014 19:33:47
Eccentricity: 0.0002768
inclination: 107.9919°
perigee height: 746 km
apogee height: 750 km
right ascension of ascending node: 245.4825°
argument of perigee: 281.4175°
revolutions per day: 14.43046309
mean anomaly at epoch: 172.7176°
orbit number at epoch: 89361

The dashed part of the orbit path shows where the satellite is in the earth's shadow,  

DLR